SCP
0 0 0 0 0 0 0 0 0 0 0 0 0 0 0 0 0 0 0 0 0 0 0 0 0 0 0 0 0 0 0 0 0 0 0 0 0 0 0 0 0 0 0 0
0 0 0 0 0 0 0 0 0 0 0 0 0 0 0 0 0 0 0 0 0 0 0 0 0 0 0 0 0 0 0 0 0 0 0 0 0 0 0 0 0 0 0 0
0 0 0 0 0 0 0 0 0 0 0 0 0 0 0 0 0 0 0 0 0 0 0 0 0 0 0 0 0 0 0 0 0 0 0 0 0 0 0 0 0 0 0 0
0 0 0 0 0 0 0 0 0 0 0 0 0 0 0 0 0 0 0 0 0 0 0 0 0 0 0 0 0 0 0 0 0 0 0 0 0 0 0 0 0 0 0 0
0 0 0 0 0 0 0 0 0 0 0 0 0 0 0 0 0 0 0 0 0 0 0 0 0 0 0 0 0 0 0 0 0 0 0 0 0 0 0 0 0 0 0 0
0 0 0 0 0 0 0 0 0 0 0 0 0 0 0 0 0 0 0 0 0 0 0 0 0 0 0 0 0 0 0 0 0 0 0 0 0 0 0 0 0 0 0 0
0 0 0 0 0 0 0 0 0 0 0 0 0 0 0 0 0 0 0 0 0 0 0 0 0 0 0 0 0 0 0 0 0 0 0 0 0 0 0 0 0 0 0 0
0 0 0 0 0 0 0 0 0 0 0 0 0 0 0 0 0 0 0 0 0 -0 0 0 0 0 0 0 0 0 0 0 0 0 0 0 0 0 0 0 0 0 0 0
0 0 0 0 0 0 0 0 0 0 0 0 0 0 0 0 0 0 0 0 0 -0 -0 -0 0 0 0 0 0 0 0 0 0 0 0 0 0 0 0 0 0 0 0 0
0 0 0 0 0 0 0 0 0 0 0 0 0 0 0 0 0 0 0 0 0 -0 -0 -0 0 0 0 0 0 0 0 0 0 0 0 0 0 0 0 0 0 0 0 0
0 0 0 0 0 0 0 0 0 0 0 0 0 0 0 0 0 0 0 0 0 0 -0 -0 0 0 0 0 0 0 0 0 0 0 0 0 0 0 0 0 0 0 0 0
0 0 0 0 0 0 0 0 0 0 0 0 0 0 0 0 0 0 0 0 0 0 0 0 0 0 0 0 0 0 0 0 0 0 0 0 0 0 0 0 0 0 0 0
0 0 0 0 0 0 0 0 0 0 0 0 0 0 0 0 0 0 0 0 0 0 0 0 0 0 0 0 0 0 0 0 0 0 0 0 0 0 0 0 0 0 0 0
0 0 0 0 0 0 0 0 0 0 0 0 0 0 0 0 0 0 0 0 0 0 0 0 0 0 0 0 0 0 0 0 0 0 0 0 0 0 0 0 0 0 0 0
0 0 0 0 0 0 0 0 0 0 0 0 0 0 0 0 0 0 0 0 0 0 0 0 0 0 0 0 0 0 0 0 0 0 0 0 0 0 0 0 0 0 0 0
0 0 0 0 0 0 0 0 0 0 0 0 0 0 0 0 0 0 0 0 0 0 0 0 0 0 0 0 0 0 0 0 0 0 0 0 0 0 0 0 0 0 0 0
0 0 0 0 0 0 0 0 0 0 0 0 0 0 0 0 0 0 0 0 0 0 0 0 0 0 0 0 0 0 0 0 0 0 0 0 0 0 0 0 0 0 0 0
0 0 0 0 0 0 0 0 0 0 0 0 0 0 0 0 0 0 0 0 0 0 0 0 0 0 0 0 0 0 0 0 0 0 0 0 0 0 0 0 0 0 0 0
0 0 0 0 0 0 0 0 0 0 0 0 0 0 0 0 0 0 0 0 0 0 0 0 0 0 0 0 0 0 0 0 0 0 0 0 0 0 0 0 0 0 0 0
0 0 0 0 0 0 0 0 0 0 0 0 0 0 0 0 0 0 0 0 0 0 0 0 0 0 0 0 0 0 0 0 0 0 0 0 0 0 0 0 0 0 0 0
0 0 0 0 0 0 0 0 0 0 0 0 0 0 0 0 0 0 0 0 0 0 0 0 0 0 0 0 0 0 0 0 0 0 0 0 0 0 0 0 0 0 0 0
0 0 0 0 0 0 0 0 0 0 0 0 0 0 0 0 0 0 0 0 0 0 0 0 0 0 0 0 0 0 0 0 0 0 0 0 0 0 0 0 0 0 0 0
0 0 0 0 0 0 0 0 0 0 0 0 0 0 0 0 0 0 0 0 0 0 0 0 0 0 0 0 0 0 0 0 0 0 0 0 0 0 0 0 0 0 0 0
0 0 0 0 0 0 0 0 0 0 0 0 0 0 0 0 0 0 0 0 0 0 0 0 0 0 0 0 0 0 0 0 0 0 0 0 0 0 0 0 0 0 0 0
0 0 0 0 0 0 0 0 0 0 0 0 0 0 0 0 0 0 0 0 0 0 0 0 0 0 0 0 0 0 0 0 0 0 0 0 0 0 0 0 0 0 0 0
0 0 0 0 0 0 0 0 0 0 0 0 0 0 0 0 0 0 0 0 0 0 0 0 0 0 0 0 0 0 0 0 0 0 0 0 0 0 0 0 0 0 0 0
Wind_Speed
7 8 12 14 14 6 6 7 8 4 2 6 11 14 12 9 10 11 11 10 11 11 9 8 8 8 7 7 7 7 6 5 4 3 3 3 3 3 2 2 3 3 3 3
7 12 11 7 9 8 8 8 7 3 2 5 8 14 12 11 12 12 12 12 11 10 8 8 8 8 8 8 7 7 6 5 5 4 3 3 3 3 3 3 3 3 4 4
12 4 7 10 10 10 11 11 9 5 2 4 7 10 10 9 10 10 11 11 11 10 10 9 9 9 8 8 8 6 6 6 5 4 3 2 2 3 3 3 3 4 4 4
9 6 8 11 11 11 9 7 7 6 6 4 4 7 6 7 8 9 10 10 10 10 10 10 10 9 9 8 7 6 6 5 5 5 4 5 4 4 4 4 3 4 4 5
6 6 9 11 9 10 4 3 5 6 6 5 6 7 6 5 8 8 8 9 9 9 9 10 10 9 8 7 6 6 6 5 5 5 5 5 5 5 4 4 5 5 4 5
3 3 5 5 3 6 7 6 4 3 4 7 8 9 8 6 8 7 7 7 7 7 8 8 9 8 7 6 5 5 6 5 5 5 6 6 7 6 6 6 5 5 4 4
5 5 4 4 6 7 8 6 4 5 6 7 5 9 10 4 4 6 6 6 5 6 7 8 8 8 7 7 6 6 6 6 6 6 6 7 7 7 7 6 6 6 5 5
7 7 8 7 8 9 11 9 6 6 6 4 6 10 6 1 2 3 4 4 3 5 5 6 8 8 7 7 7 7 7 6 6 6 6 6 7 5 5 6 6 6 5 6
6 4 3 4 3 7 9 9 4 1 1 4 6 6 7 3 2 2 3 3 3 4 5 6 6 7 7 7 7 7 7 7 6 6 6 6 6 6 6 7 7 6 6 6
2 3 3 3 4 2 4 6 5 5 5 7 6 7 5 3 3 2 2 2 3 3 4 5 5 6 6 6 6 7 7 7 6 6 6 5 6 6 6 6 7 7 7 7
1 3 3 5 8 9 8 7 6 5 4 6 6 4 1 2 2 2 2 2 2 3 3 4 4 5 5 5 5 6 6 6 6 6 6 6 6 5 6 6 6 6 6 7
2 2 3 4 1 3 6 7 8 6 6 5 5 3 3 0 1 1 2 1 1 2 2 3 3 4 4 4 5 5 5 5 5 5 5 5 5 5 6 6 6 6 6 6
3 3 3 4 4 4 5 6 6 3 3 6 7 4 3 1 1 2 2 1 1 1 1 2 2 3 3 4 4 4 4 4 4 4 5 4 4 5 5 6 6 6 6 6
2 3 6 7 4 6 7 8 9 7 6 8 10 8 5 3 3 4 3 2 1 0 1 1 2 2 3 3 3 3 3 3 3 4 4 4 4 5 5 5 5 5 6 6
2 3 4 5 4 5 7 11 13 13 12 10 10 11 9 6 5 4 2 1 0 0 1 1 2 2 3 3 3 3 3 3 3 3 4 4 4 4 4 5 5 5 6 6
2 3 3 4 4 5 8 11 15 15 15 14 13 13 7 6 4 4 3 2 2 2 2 2 3 3 3 3 3 2 2 2 3 3 3 3 3 4 4 4 5 5 6 6
4 4 3 4 4 4 10 12 14 12 12 13 14 10 4 5 5 5 5 4 4 4 3 4 4 3 3 2 2 2 2 2 2 2 3 3 3 4 4 4 5 5 6 6
6 4 2 2 4 9 3 1 8 10 9 10 8 6 5 5 6 6 5 4 4 4 4 4 4 3 3 2 1 1 1 1 2 2 3 3 3 4 4 4 5 5 5 6
7 6 4 4 5 6 3 1 4 7 7 6 8 6 4 3 3 3 1 3 4 4 4 4 3 3 2 1 1 0 1 1 2 2 3 3 3 4 4 5 5 5 5 6
2 4 4 4 5 6 0 1 1 4 5 2 5 5 3 2 4 2 3 4 4 4 3 3 2 2 1 1 0 0 1 2 2 3 3 3 3 4 5 5 5 5 5 6
2 3 5 6 5 4 1 1 3 5 1 1 2 3 3 4 4 3 4 4 3 3 3 3 2 1 1 1 0 1 1 2 3 3 3 3 3 4 4 4 4 5 5 5
5 4 4 4 6 4 2 3 3 2 3 2 2 2 2 2 2 2 3 3 3 3 3 3 2 2 2 1 0 1 2 3 2 2 2 3 3 3 3 3 4 4 4 5
5 4 3 4 3 2 3 2 2 2 3 4 3 3 2 2 2 2 2 3 3 3 3 3 3 3 3 2 1 2 3 3 2 2 3 3 3 3 3 3 4 4 4 4
3 1 2 3 4 3 3 3 3 3 4 3 3 3 2 2 1 1 2 2 3 3 3 3 3 3 3 3 2 2 3 3 2 2 3 3 3 3 3 3 3 3 4 4
2 3 3 5 4 4 3 3 3 3 3 3 3 2 1 1 1 1 2 2 2 2 3 3 2 3 3 3 3 3 3 3 3 3 3 3 3 3 3 3 3 4 4 4
3 4 5 5 4 4 5 4 4 3 3 2 1 2 1 0 1 2 2 2 2 2 3 3 3 3 3 4 4 4 4 3 3 3 3 2 2 3 3 3 3 3 4 7
Wind_Direction
178 197 205 204 210 233 211 212 222 217 170 227 242 257 259 241 229 228 223 218 217 217 210 203 201 197 196 197 198 197 201 200 201 207 218 228 239 249 253 260 270 271 273 275
182 219 218 204 202 210 210 219 227 227 195 248 267 267 259 242 231 229 227 222 218 215 205 199 198 195 197 198 201 202 205 204 208 218 229 240 249 259 263 264 264 267 268 271
208 196 184 189 191 203 218 226 227 227 226 235 282 265 236 225 225 227 229 227 222 216 210 200 197 197 197 199 201 203 205 208 214 220 224 231 242 249 248 255 259 262 267 266
219 210 189 193 203 207 222 218 219 222 236 242 253 275 234 214 217 219 220 219 219 215 214 208 200 198 199 200 199 202 202 208 214 216 222 229 241 252 261 265 265 267 269 270
201 188 192 203 208 205 200 157 193 216 228 252 221 253 256 210 225 220 215 215 218 214 212 208 202 199 198 194 194 197 199 206 211 219 226 236 245 254 260 262 263 265 266 265
220 213 218 209 189 185 146 131 128 181 218 242 223 231 256 210 224 223 216 215 215 210 208 206 198 195 192 187 190 198 201 211 216 223 231 238 247 252 257 260 265 268 269 268
204 206 196 180 160 168 185 175 180 195 211 232 182 227 251 241 235 240 232 222 213 203 201 198 193 191 189 190 194 201 206 217 223 229 235 243 247 250 253 261 266 270 271 270
197 206 192 193 201 187 196 205 208 213 219 203 188 234 249 300 267 255 249 231 213 201 199 199 196 194 193 195 199 205 213 222 226 234 241 246 246 250 254 259 265 265 266 271
201 191 146 191 203 189 185 210 243 236 280 252 220 244 270 206 220 232 227 216 208 200 200 200 198 199 199 201 206 211 218 225 229 236 243 248 249 253 259 264 262 263 263 268
196 192 190 178 174 201 230 175 177 201 211 232 232 235 233 196 201 200 206 215 211 199 200 201 199 201 204 207 213 217 221 227 229 236 243 251 253 256 260 261 260 263 266 267
184 173 178 191 204 191 177 189 200 197 242 239 235 223 158 216 213 208 222 232 220 206 206 205 203 202 203 207 215 221 225 231 235 239 245 250 253 256 259 261 264 268 270 270
183 186 200 208 229 274 222 207 193 202 206 231 253 246 89 33 326 275 290 288 245 224 215 207 204 201 203 210 217 222 230 236 240 243 247 250 253 254 260 265 270 272 273 273
168 167 166 183 191 192 216 215 212 213 195 210 226 225 109 41 348 326 319 318 277 212 205 206 205 208 214 221 225 226 230 237 242 243 244 248 252 255 261 266 270 272 274 277
247 207 224 226 228 183 202 208 206 204 215 224 235 250 257 285 313 322 324 326 312 190 207 232 233 230 232 233 233 234 241 247 249 244 243 249 255 260 264 268 271 273 274 277
220 224 231 266 265 214 220 212 209 217 224 231 240 247 264 280 293 297 295 295 267 217 251 258 258 258 250 247 250 247 255 259 251 246 250 255 263 266 269 273 276 276 276 278
194 214 215 244 244 241 243 230 219 224 231 240 255 261 269 279 286 285 279 269 253 254 258 260 263 265 256 256 261 262 264 267 256 253 263 270 267 270 274 277 280 279 281 284
190 185 206 232 236 249 240 222 212 214 220 225 235 247 261 269 266 266 266 257 255 259 262 261 262 260 259 264 266 265 278 287 269 269 280 282 273 275 276 278 280 282 285 288
198 197 209 201 193 229 239 207 207 214 224 225 240 260 270 274 285 282 270 263 266 273 271 268 269 270 271 271 272 291 303 293 294 295 292 292 285 283 285 285 286 288 289 288
208 193 191 201 219 251 262 211 189 205 229 224 235 251 276 311 292 264 305 302 291 287 286 281 274 269 271 275 291 340 332 322 311 303 301 303 295 291 289 287 287 290 291 291
175 197 196 203 220 231 291 82 205 192 229 206 230 248 259 253 257 280 344 321 315 316 317 309 299 289 281 295 352 2 331 320 318 319 312 302 295 290 289 291 293 294 293 292
167 191 207 213 230 248 21 38 178 208 237 24 234 245 237 247 273 315 327 334 337 335 337 332 332 326 316 319 329 314 310 308 320 326 323 312 299 296 295 298 303 307 308 306
189 186 196 204 218 234 110 149 197 324 348 321 301 277 263 301 314 318 330 343 348 352 356 359 7 2 354 355 353 306 310 319 328 330 326 323 319 316 309 306 309 309 308 305
211 212 203 211 234 357 175 211 293 324 312 318 317 305 298 297 304 326 333 341 348 355 359 4 14 11 9 6 357 327 326 329 332 335 330 327 326 323 317 310 309 310 310 306
224 238 211 243 260 275 266 294 312 313 309 314 315 310 298 288 297 317 332 339 347 351 358 2 12 12 4 0 358 349 335 325 323 326 327 327 326 327 326 321 315 312 311 311
221 192 219 248 275 288 271 287 304 310 317 324 333 330 301 238 286 311 323 328 336 342 346 352 357 351 346 350 353 355 346 333 323 325 328 322 322 323 321 320 318 308 307 312
211 212 222 246 253 263 278 293 297 297 301 304 332 346 343 273 269 306 316 324 331 341 347 352 353 350 345 346 352 354 350 335 323 322 323 319 323 322 317 316 319 321 303 315